Погода в Рябове

Россия / Ивановская область     56°55′29″N   42°12′59″E
темп.,
°C
ветер,
м/с
пор.,
м/с
влажн.,
%
обл.,
%
осадки,
мм/ч
давл.,
гПа
погр.,
м
19 мая, ср
ср1900:00+19вюв6158725 0.0 1012343
03:00+18вюв615895 0.0 1012341
06:00+18вюв51481100 0.0 1012358
09:00+23вюв6146264 0.0 1012535
12:00+26юв711520 0.0 10111180
15:00+27юв712543 0.0 10111530
18:00+24юв713645 0.0 1011793
21:00+21вюв615723 0.0 1011551
20 мая, чт
чт2000:00+18вюв411805 0.1 1011316
03:00+17вюв515760 0.1 1010384
06:00+17вюв411820 0.1 1010376
09:00+21вюв68660 0.1 1009768
12:00+24юв7105917 0.0 10081802
15:00+22ююв71273100 2.8 10081258
18:00+19ю5880100 2.6 1008622
21:00+16юв3589100 3.8 100780
21 мая, пт
пт2100:00+14ю36905 0.2 1007109
03:00+12ююз2594100 0.2 1006105
06:00+13ю369210 0.0 1006230
09:00+17ююз577884 0.7 1006990
12:00+15юз587999 1.1 10071097
15:00+14юз6882100 1.9 1009793
18:00+14зсз6108426 0.6 1011792
21:00+12зюз36889 0.6 1014122
22 мая, сб
сб2200:00+10зюз379070 0.0 1016122
03:00+8зюз359388 0.0 101786
06:00+10зюз36823 0.0 1019162
09:00+15зюз34615 0.0 1019638
12:00+18зюз354841 0.0 10191881
15:00+19юз3551100 0.0 10182108
18:00+17ююз246699 0.0 1018162
21:00+12ююз33780 0.0 101835
23 мая, вс
вс2300:00+11ю34860 0.0 101850
03:00+9ю11894 0.0 101910
06:00+12вюв2484100 0.0 1018123
09:00+16вюв5768100 0.0 1017743
12:00+19вюв6868100 0.0 10141079
15:00+18вюв5882100 0.9 1012890
18:00+16вюв61292100 0.5 1009524
21:00+16вюв51296100 3.5 1005465